Location: Augustenthal
(51.7167°N, 10.2833°E)
Time: 08:33:43
(UTC+00:00)

Cosmos 1470 - Pass Details

Date: 18 May 2021
Orbit: 521 x 540 km, 82.5° (Epoch: 20 June)

Event Time Altitude Azimuth Distance (km) Brightness Sun altitude
Rises 23:29:07 0° 350° (N) 2,690 7.8 -18.5°
Reaches altitude 10° 23:31:17 10° 351° (N) 1,797 6.6 -18.4°
Maximum altitude 23:35:14 80° 79° (E) 551 2.7 -18.4°
Enters shadow 23:36:26 44° 159° (SSE) 755 3.1 -18.4°
